Temperature
9 8 7 8 9 10 10 10 10 10 10 9 8 8 8 8 7 7 7 7 6 6 5 5 5 4 4 5 5 5 5 6 6 6 6 6 6 6 6 6 6 6 6 6
8 7 8 8 9 9 9 9 9 9 8 8 7 7 7 8 7 7 6 6 6 5 5 4 4 4 4 4 4 4 5 5 5 5 5 5 5 5 5 6 6 6 6 6
7 7 8 8 8 8 8 7 7 7 7 7 6 6 7 7 7 6 6 5 5 4 4 3 3 3 3 3 3 3 4 4 4 4 4 4 5 5 5 5 5 5 5 5
7 7 7 7 7 7 7 7 6 6 6 6 7 5 7 7 6 5 5 5 4 4 3 3 2 2 2 2 2 3 3 3 3 4 4 4 4 4 4 5 4 5 4 5
6 6 6 6 6 6 6 6 6 5 5 5 6 5 6 6 6 5 5 4 4 4 3 2 2 2 2 1 2 2 2 2 3 3 3 3 3 4 4 4 4 4 4 4
6 6 5 5 5 5 5 5 5 5 4 4 5 5 5 5 5 5 4 4 3 3 2 2 1 1 1 1 1 1 1 2 2 2 2 2 2 3 3 3 3 3 3 3
5 5 5 5 4 5 4 4 4 4 4 5 5 5 4 5 4 4 3 3 3 2 2 1 1 0 0 0 0 0 1 1 1 1 1 2 2 2 2 2 2 2 2 2
6 5 4 3 4 3 4 4 4 4 5 5 4 4 4 4 3 3 3 2 2 1 1 0 0 -0 -0 -0 -0 -0 0 0 0 1 1 1 1 1 1 1 1 1 2 2
5 5 3 3 3 3 4 3 4 3 3 3 4 5 4 3 2 2 2 1 1 1 0 -0 -1 -1 -1 -1 -1 -0 -0 -0 -0 -0 -0 0 0 0 0 1 1 1 1 1
4 3 3 3 3 2 3 3 2 2 3 3 4 5 4 2 2 1 1 0 1 0 -0 -1 -1 -1 -1 -1 -1 -1 -1 -1 -1 -1 -1 -1 -1 -0 -0 -0 0 0 0 0
3 2 2 2 1 2 2 2 2 2 2 2 2 3 3 2 1 0 0 0 0 -0 -1 -1 -1 -1 -1 -1 -1 -1 -2 -2 -2 -2 -2 -1 -1 -1 -1 -1 -1 -1 -1 -1
2 2 2 2 1 1 1 2 1 1 1 1 1 2 2 1 1 1 0 0 -0 -1 -1 -1 -2 -2 -2 -2 -2 -2 -2 -2 -2 -2 -2 -2 -2 -2 -2 -2 -2 -1 -1 -1
1 1 1 2 1 -0 0 1 0 -0 -0 0 1 1 1 1 1 1 0 -0 -1 -1 -2 -2 -2 -2 -2 -2 -2 -2 -2 -3 -3 -3 -3 -3 -3 -3 -3 -2 -2 -2 -2 -2
1 -0 0 2 2 0 -1 -0 -1 -1 -1 -1 0 1 1 -0 -1 -0 -0 -1 -1 -2 -2 -3 -3 -3 -3 -3 -3 -3 -3 -3 -3 -3 -4 -3 -3 -4 -4 -3 -3 -3 -3 -3
-1 -1 -1 -0 0 0 -0 -1 -1 -2 -2 -1 -0 -0 -0 -1 -1 -1 -1 -1 -2 -3 -3 -3 -4 -4 -4 -4 -4 -4 -4 -4 -4 -4 -4 -4 -4 -4 -4 -4 -4 -4 -4 -4
-2 -2 -2 -2 -0 -1 -1 -1 -1 -2 -2 -2 -2 -1 -1 -1 -1 -1 -2 -2 -3 -3 -4 -4 -4 -4 -4 -4 -4 -4 -4 -4 -4 -5 -4 -5 -5 -5 -5 -5 -5 -5 -5 -5
-2 -3 -2 -1 -1 -2 -2 -2 -2 -2 -2 -3 -2 -2 -2 -3 -3 -3 -2 -3 -4 -4 -4 -5 -5 -5 -5 -5 -5 -5 -5 -5 -5 -5 -5 -5 -5 -5 -5 -6 -6 -6 -6 -6
-4 -3 -3 -2 -2 -2 -1 -2 -2 -3 -3 -3 -3 -4 -3 -3 -3 -3 -3 -3 -4 -4 -5 -5 -5 -5 -5 -5 -5 -5 -5 -6 -6 -6 -6 -6 -6 -6 -6 -6 -6 -6 -6 -6
-4 -4 -3 -3 -2 -2 -1 -2 -3 -4 -4 -4 -4 -4 -4 -3 -4 -4 -3 -4 -4 -5 -5 -5 -5 -5 -6 -6 -6 -6 -6 -6 -6 -6 -6 -7 -7 -7 -7 -7 -7 -7 -7 -7
-5 -5 -4 -3 -3 -2 -1 -4 -3 -4 -4 -4 -4 -5 -5 -5 -6 -5 -4 -4 -5 -5 -5 -6 -6 -6 -6 -6 -7 -7 -7 -7 -7 -7 -7 -7 -8 -8 -8 -8 -8 -8 -8 -8
-5 -5 -5 -4 -3 -3 -4 -5 -4 -3 -3 -3 -4 -4 -5 -6 -5 -4 -5 -5 -5 -6 -6 -6 -6 -7 -7 -7 -7 -8 -8 -8 -8 -8 -8 -8 -8 -8 -8 -9 -9 -9 -9 -9
-5 -5 -5 -4 -4 -3 -5 -6 -5 -4 -3 -3 -4 -4 -5 -5 -5 -5 -6 -6 -6 -6 -7 -7 -7 -7 -8 -8 -8 -8 -8 -9 -9 -9 -9 -9 -9 -9 -9 -9 -9 -9 -9 -9
-5 -4 -4 -4 -3 -3 -4 -4 -3 -3 -4 -4 -4 -5 -5 -6 -6 -6 -7 -7 -7 -7 -7 -8 -8 -8 -8 -9 -9 -9 -9 -9 -9 -10 -10 -10 -10 -10 -10 -10 -10 -10 -10 -10
-5 -5 -5 -5 -5 -4 -4 -4 -4 -4 -4 -5 -5 -6 -6 -7 -7 -7 -7 -7 -8 -8 -8 -8 -9 -9 -9 -9 -10 -10 -10 -10 -10 -10 -10 -10 -10 -10 -10 -11 -11 -11 -11 -11
-5 -7 -7 -7 -6 -5 -4 -4 -4 -5 -5 -5 -6 -6 -7 -7 -7 -8 -8 -8 -8 -9 -9 -9 -10 -10 -10 -10 -10 -10 -11 -11 -11 -11 -11 -11 -11 -11 -11 -11 -11 -11 -11 -11
-6 -7 -7 -6 -6 -6 -5 -5 -5 -5 -6 -6 -7 -7 -7 -8 -8 -9 -9 -9 -9 -10 -10 -10 -10 -10 -10 -10 -11 -11 -11 -11 -11 -11 -12 -12 -12 -12 -12 -12 -12 -12 -12 -12
Wind_Speed
2 0 2 3 5 6 7 7 9 6 1 4 7 9 8 4 5 5 4 3 3 2 3 4 4 4 3 3 3 3 3 3 3 2 2 2 1 1 2 4 5 4 4 4
1 2 3 4 4 5 7 8 8 5 1 3 6 9 9 6 5 3 2 1 1 0 2 3 4 4 3 2 2 2 2 2 2 1 1 1 2 1 2 3 4 3 3 3
3 1 2 3 3 4 5 5 6 6 5 5 5 7 6 3 2 2 1 1 0 0 1 2 3 3 3 2 2 2 2 2 2 1 1 2 2 2 1 1 1 2 3 3
2 1 2 2 2 3 5 3 5 6 5 4 3 6 5 5 3 3 2 1 1 1 1 2 2 2 2 2 1 2 2 2 2 2 2 3 3 2 2 2 2 2 3 3
1 1 1 2 2 3 3 4 5 6 6 6 5 5 6 4 4 4 3 1 0 0 1 2 2 2 2 2 1 1 1 2 1 1 2 2 2 1 1 2 2 2 2 3
2 1 1 2 2 2 3 3 4 4 3 6 7 7 5 3 3 1 0 1 1 1 1 2 2 2 2 2 2 1 1 1 1 2 2 2 2 2 3 2 2 2 1 1
3 3 1 1 1 1 2 1 2 2 3 5 1 4 5 1 2 2 1 2 2 2 2 2 2 2 2 2 2 1 1 1 1 2 2 2 2 3 4 3 3 3 2 1
3 2 3 1 0 1 3 1 1 3 4 4 2 6 3 3 3 3 3 3 3 3 2 2 1 1 2 2 2 2 2 2 2 2 2 2 1 1 2 2 2 3 2 2
3 2 2 1 1 1 1 2 1 2 4 5 5 4 1 2 2 2 2 3 3 3 2 1 1 1 1 2 2 2 2 1 2 2 2 2 1 1 1 1 1 2 2 2
3 4 1 1 1 2 2 2 0 2 3 5 6 5 3 1 1 1 2 3 2 2 2 1 1 0 0 1 1 1 1 1 1 1 2 2 2 1 1 1 2 2 2 2
2 2 2 2 4 4 2 2 3 3 4 3 5 4 0 2 2 1 1 1 1 1 1 1 1 1 1 0 1 1 1 1 1 1 2 2 2 2 1 2 2 2 1 2
0 2 4 3 1 2 2 4 4 3 5 4 4 5 0 3 3 2 1 1 2 2 2 1 1 1 1 0 0 1 1 1 1 2 2 2 2 2 2 2 2 2 2 2
1 2 3 2 1 1 2 3 3 2 2 4 5 6 1 2 1 1 1 2 2 1 2 2 2 1 1 1 1 1 0 1 1 1 1 2 2 2 2 2 2 2 2 2
0 3 6 6 3 1 4 4 4 4 5 6 8 10 8 6 6 4 3 3 2 1 1 2 2 2 1 1 1 1 1 1 1 0 1 2 3 2 2 2 2 2 2 3
1 4 5 8 7 5 6 7 8 9 9 9 10 9 11 7 5 4 3 3 2 2 2 2 2 2 1 1 1 1 1 1 1 1 1 2 2 2 2 2 2 2 3 3
2 3 3 6 6 7 9 11 10 10 10 12 13 14 11 7 4 4 3 3 3 3 3 3 2 2 2 1 1 1 1 1 1 1 2 2 2 2 2 2 2 3 3 3
3 2 2 5 3 5 9 10 11 9 9 8 12 12 6 4 4 4 4 2 2 3 3 3 3 2 2 1 1 1 1 1 1 2 2 2 2 2 2 3 3 3 3 3
4 3 3 4 3 8 7 2 6 8 8 8 8 6 5 5 5 3 2 1 2 2 3 3 3 3 2 2 1 1 1 1 1 2 3 2 2 2 2 2 3 3 3 3
3 4 3 3 5 9 5 3 4 5 7 6 9 8 5 3 4 3 1 0 1 2 2 2 2 2 2 2 2 1 1 1 1 2 2 2 2 2 2 3 3 3 3 4
2 3 4 4 5 7 5 1 1 3 5 3 4 6 4 1 3 4 1 0 1 1 2 2 2 1 2 2 1 1 1 2 2 3 2 2 2 2 3 3 3 3 3 4
3 4 8 8 7 7 3 2 3 3 6 2 2 4 4 4 6 3 1 1 0 1 2 2 1 1 2 2 1 1 2 3 3 3 2 2 2 3 3 2 2 2 3 3
7 6 6 6 7 9 3 5 6 6 1 1 2 2 3 4 4 3 2 2 2 2 2 1 1 2 2 2 1 1 3 3 2 2 2 3 3 3 2 2 2 2 3 3
8 8 5 8 8 3 6 6 4 1 2 3 2 3 3 4 5 5 4 3 3 2 2 1 1 2 2 2 1 2 3 2 2 2 3 3 3 3 2 2 2 2 3 3
5 3 4 5 7 5 5 5 4 4 4 3 3 3 3 5 6 5 5 4 3 2 2 2 1 2 3 3 2 3 3 2 2 2 3 3 3 3 2 2 2 2 3 3
5 5 5 7 6 5 5 5 5 4 3 4 4 4 4 5 6 5 5 4 3 3 2 2 2 3 4 3 3 3 2 2 2 3 3 3 3 3 2 2 2 3 3 4
5 6 6 8 5 4 5 3 3 3 4 4 4 4 4 4 5 4 4 3 3 3 2 2 3 3 3 3 3 3 2 2 2 3 3 2 2 2 2 3 3 5 5 7
Wind_Direction
132 154 243 260 253 277 304 292 288 289 312 255 253 263 269 230 220 233 236 232 226 213 151 134 125 118 115 110 116 124 123 121 114 122 126 132 134 115 101 103 102 102 108 119
142 247 287 303 315 304 299 292 289 298 2 270 268 266 266 248 225 223 225 248 262 183 113 128 124 121 123 133 138 136 137 135 133 136 144 150 136 135 119 109 106 109 116 120
207 355 336 320 316 297 280 280 295 303 314 266 278 280 244 234 163 140 194 265 321 153 164 149 142 142 143 159 171 164 150 151 129 97 98 111 99 100 126 136 133 121 129 123
258 345 323 300 300 299 277 309 305 301 302 275 232 278 252 202 182 194 215 235 241 288 127 139 144 152 161 168 154 148 154 142 123 116 135 151 159 174 176 165 168 149 145 139
258 3 335 275 290 295 290 318 292 282 271 279 242 247 269 185 197 212 208 199 224 108 132 147 153 161 142 116 106 117 133 143 143 148 171 181 172 159 132 129 138 153 156 152
245 9 351 319 307 291 308 290 266 253 251 261 228 218 266 204 198 191 154 125 71 57 71 111 118 115 115 108 104 109 127 165 178 184 191 190 180 164 144 147 158 158 158 159
235 185 143 3 307 261 304 322 311 261 227 243 205 224 245 193 95 100 59 40 53 67 88 83 98 122 128 130 135 144 158 208 217 211 213 209 200 183 172 171 172 170 172 187
276 249 153 110 322 262 246 230 205 257 269 291 262 236 233 139 101 66 53 49 36 57 65 58 77 137 149 162 165 172 194 214 220 220 230 223 209 200 185 171 172 179 187 193
302 274 102 95 347 320 250 238 271 274 289 283 255 244 224 111 72 58 40 33 29 46 56 52 35 71 158 187 197 193 194 210 227 227 227 215 208 215 208 187 187 188 184 183
322 287 201 137 250 266 300 304 208 208 259 269 269 251 246 181 307 26 28 16 16 35 28 22 27 12 253 216 199 177 179 210 239 239 231 222 217 223 220 207 208 203 192 184
309 268 242 189 201 202 181 220 224 242 240 243 277 267 22 142 135 104 32 6 12 15 5 4 352 332 315 329 144 151 176 234 246 234 237 227 219 218 213 218 216 213 216 196
218 266 260 229 93 52 204 214 188 206 250 235 255 266 49 106 105 101 38 9 17 16 16 15 355 351 343 322 136 141 187 225 245 242 238 226 220 207 206 227 235 227 220 211
167 198 285 277 332 343 260 238 221 224 262 243 244 259 197 82 39 33 336 338 357 30 30 13 3 359 360 15 40 39 324 265 261 249 245 239 229 209 210 221 228 229 222 215
257 218 213 231 252 193 236 233 209 194 223 247 240 259 279 296 307 314 320 325 337 17 15 5 345 340 7 32 30 14 350 346 320 262 241 246 241 220 213 212 223 223 220 210
191 241 247 261 274 274 255 246 222 217 226 238 260 264 276 282 291 304 308 322 332 335 343 347 331 336 7 33 17 352 336 334 322 267 255 258 258 230 206 208 220 227 222 219
206 251 284 272 253 256 264 252 239 236 240 248 264 271 272 282 295 302 297 299 299 314 326 333 337 342 352 357 327 317 311 310 306 281 271 267 260 235 218 218 219 224 222 220
198 200 250 267 263 294 265 237 222 229 225 221 243 255 288 303 294 284 282 285 293 310 321 324 320 313 323 327 324 292 285 300 297 285 280 270 256 242 234 230 226 229 227 221
180 190 227 274 301 250 244 185 198 224 245 231 241 266 280 272 285 287 267 251 283 302 309 314 318 322 330 336 331 310 313 295 284 282 278 275 261 255 249 237 235 234 229 227
202 193 225 239 258 269 263 218 184 208 262 236 241 263 280 306 326 300 305 123 252 285 299 307 316 316 321 331 337 346 333 322 307 291 280 282 275 268 259 252 251 239 230 232
208 195 217 227 243 254 254 205 144 128 275 265 226 251 262 335 291 275 278 47 303 320 320 325 337 339 323 324 351 352 318 318 300 297 294 292 276 264 261 259 257 248 238 237
184 205 219 231 241 260 251 162 119 175 256 292 230 241 230 220 233 260 297 334 291 313 322 338 333 312 298 309 333 286 293 286 289 301 304 298 285 275 267 264 261 258 247 244
189 198 209 211 231 251 171 141 187 226 292 298 275 250 245 258 277 288 287 284 285 299 307 316 311 300 306 316 301 282 283 289 302 306 302 299 293 282 278 265 259 251 240 243
204 204 204 205 222 242 173 196 215 215 266 279 276 280 267 274 280 282 282 278 273 275 284 288 275 291 302 310 289 271 283 297 310 305 296 295 294 288 282 260 258 255 240 236
227 205 224 249 254 251 234 241 252 243 243 266 275 279 268 264 273 279 282 281 279 283 277 273 272 283 292 297 296 280 290 299 295 290 290 288 285 285 280 268 258 251 244 240
223 183 224 251 268 289 266 242 250 264 273 277 277 266 256 260 272 272 277 274 273 279 277 263 258 268 282 296 295 296 297 290 282 284 284 285 281 280 273 266 255 257 244 241
208 199 210 241 237 231 259 271 267 256 264 267 276 286 276 257 266 272 270 268 265 264 268 264 263 270 279 286 291 297 294 272 265 277 282 281 279 275 271 274 283 278 269 274
Height
1496 1500 1502 1500 1498 1497 1495 1494 1494 1492 1492 1494 1494 1494 1491 1491 1492 1491 1492 1493 1494 1494 1495 1496 1497 1497 1498 1499 1501 1502 1504 1506 1508 1510 1511 1513 1515 1517 1519 1521 1522 1524 1526 1527
1498 1502 1500 1498 1497 1497 1497 1497 1495 1493 1493 1495 1494 1492 1488 1487 1487 1488 1489 1490 1491 1493 1493 1493 1494 1494 1495 1496 1498 1499 1501 1503 1505 1507 1509 1511 1512 1514 1516 1517 1519 1521 1523 1524
1499 1501 1500 1499 1499 1499 1499 1501 1498 1498 1496 1494 1495 1492 1485 1483 1484 1486 1487 1488 1489 1490 1490 1491 1491 1491 1493 1494 1495 1496 1498 1500 1502 1504 1506 1508 1509 1510 1512 1514 1516 1517 1519 1521
1499 1500 1500 1500 1500 1500 1501 1500 1499 1499 1501 1499 1495 1498 1483 1481 1484 1484 1485 1486 1487 1488 1488 1488 1488 1489 1490 1491 1493 1494 1496 1497 1499 1501 1502 1504 1505 1506 1508 1510 1512 1514 1516 1517
1500 1501 1501 1501 1502 1501 1501 1500 1500 1500 1500 1501 1495 1499 1486 1479 1482 1483 1483 1484 1484 1485 1486 1486 1486 1486 1487 1489 1490 1491 1493 1494 1496 1498 1499 1501 1502 1504 1506 1507 1509 1510 1512 1514
1501 1501 1501 1502 1501 1501 1501 1500 1499 1500 1501 1504 1492 1494 1486 1482 1480 1480 1480 1481 1481 1483 1483 1484 1484 1485 1485 1486 1487 1489 1490 1491 1493 1495 1496 1498 1499 1500 1502 1503 1505 1506 1508 1510
1500 1501 1502 1502 1502 1502 1503 1505 1505 1502 1502 1495 1487 1488 1487 1480 1478 1479 1480 1480 1480 1481 1481 1481 1482 1482 1482 1483 1484 1486 1487 1488 1490 1491 1493 1494 1496 1497 1498 1500 1501 1503 1504 1506
1498 1501 1503 1503 1504 1505 1503 1503 1508 1507 1498 1491 1491 1489 1483 1478 1478 1479 1479 1480 1480 1480 1480 1480 1480 1480 1480 1481 1482 1483 1484 1485 1487 1488 1489 1491 1492 1493 1495 1496 1497 1499 1500 1502
1502 1501 1503 1503 1503 1504 1503 1504 1503 1507 1504 1504 1489 1481 1480 1477 1478 1479 1479 1479 1479 1479 1479 1479 1479 1479 1478 1479 1479 1480 1481 1482 1483 1485 1486 1487 1488 1490 1491 1492 1494 1495 1496 1498
1504 1505 1503 1504 1504 1504 1505 1504 1507 1508 1507 1502 1487 1480 1481 1481 1480 1480 1480 1480 1479 1479 1478 1478 1477 1477 1477 1477 1477 1478 1478 1479 1480 1481 1483 1483 1485 1486 1487 1489 1490 1491 1492 1494
1505 1508 1505 1505 1505 1504 1506 1507 1506 1505 1502 1503 1498 1487 1480 1479 1479 1480 1480 1480 1479 1478 1477 1476 1476 1476 1475 1475 1475 1475 1476 1477 1477 1478 1479 1480 1481 1483 1484 1485 1485 1486 1488 1490
1505 1507 1506 1501 1501 1502 1502 1502 1505 1510 1506 1501 1501 1493 1478 1477 1478 1479 1479 1479 1478 1477 1476 1475 1474 1474 1473 1473 1473 1473 1473 1474 1474 1475 1476 1477 1478 1479 1479 1480 1481 1482 1484 1485
1506 1509 1509 1502 1506 1507 1505 1503 1503 1506 1507 1504 1501 1491 1479 1477 1477 1478 1478 1477 1477 1476 1475 1473 1472 1472 1471 1470 1470 1470 1471 1471 1471 1472 1473 1473 1474 1474 1475 1476 1477 1478 1479 1480
1505 1507 1507 1502 1497 1501 1504 1503 1503 1506 1508 1502 1493 1485 1480 1479 1477 1477 1476 1475 1475 1475 1474 1472 1471 1470 1469 1468 1468 1468 1468 1468 1468 1468 1469 1469 1470 1470 1471 1472 1473 1473 1474 1475
1505 1506 1503 1500 1497 1498 1498 1498 1500 1502 1499 1498 1487 1484 1478 1477 1477 1476 1475 1474 1473 1472 1472 1471 1470 1468 1467 1466 1465 1465 1465 1465 1465 1465 1465 1465 1466 1467 1467 1468 1469 1469 1470 1471
1505 1506 1504 1501 1496 1496 1495 1492 1493 1493 1493 1491 1487 1482 1475 1475 1475 1474 1473 1472 1471 1471 1470 1468 1467 1466 1465 1464 1463 1463 1462 1462 1462 1461 1461 1462 1462 1463 1463 1464 1464 1465 1465 1467
1504 1507 1505 1499 1495 1495 1492 1485 1486 1486 1483 1485 1483 1477 1473 1473 1473 1472 1471 1470 1469 1469 1468 1467 1465 1464 1463 1462 1461 1460 1459 1459 1458 1458 1458 1458 1459 1459 1459 1460 1460 1460 1461 1462
1503 1505 1504 1501 1498 1498 1479 1475 1476 1478 1478 1477 1475 1472 1471 1471 1470 1469 1469 1468 1467 1466 1465 1464 1463 1462 1461 1460 1459 1458 1457 1456 1455 1454 1454 1454 1455 1455 1455 1455 1456 1456 1457 1457
1499 1502 1502 1500 1497 1483 1476 1474 1475 1478 1476 1471 1471 1469 1469 1468 1468 1466 1465 1465 1465 1464 1463 1462 1460 1459 1458 1457 1456 1455 1454 1453 1452 1451 1451 1451 1451 1451 1451 1451 1451 1452 1452 1453
1498 1500 1502 1497 1495 1487 1473 1473 1470 1475 1476 1467 1466 1466 1467 1467 1469 1465 1463 1462 1461 1461 1460 1459 1457 1456 1455 1454 1453 1452 1451 1450 1449 1448 1448 1447 1448 1448 1448 1448 1448 1448 1448 1449
1499 1499 1498 1494 1491 1479 1473 1471 1472 1478 1471 1465 1464 1463 1464 1464 1464 1462 1460 1459 1458 1458 1457 1455 1454 1453 1452 1451 1450 1449 1448 1447 1446 1445 1445 1444 1444 1444 1444 1444 1444 1444 1444 1445
1491 1493 1492 1490 1488 1478 1470 1471 1472 1468 1463 1462 1462 1461 1461 1460 1459 1458 1457 1456 1455 1454 1453 1452 1451 1449 1449 1448 1447 1446 1445 1445 1444 1443 1442 1441 1441 1440 1440 1440 1440 1440 1440 1441
1481 1479 1477 1478 1472 1464 1463 1462 1462 1462 1461 1460 1460 1459 1458 1457 1456 1455 1454 1452 1451 1450 1449 1448 1447 1446 1445 1445 1444 1443 1442 1442 1440 1439 1439 1438 1437 1437 1437 1437 1436 1437 1437 1437
1473 1471 1472 1470 1463 1461 1460 1459 1459 1459 1458 1457 1457 1456 1455 1453 1452 1451 1449 1448 1447 1446 1445 1444 1443 1442 1442 1442 1441 1440 1439 1438 1437 1436 1435 1434 1434 1433 1433 1433 1433 1433 1433 1433
1466 1468 1468 1465 1460 1458 1456 1456 1455 1455 1454 1453 1452 1451 1450 1449 1448 1447 1445 1444 1443 1442 1441 1441 1440 1439 1438 1438 1437 1437 1436 1435 1434 1433 1432 1431 1430 1430 1429 1429 1429 1429 1429 1430
1460 1462 1464 1458 1455 1455 1453 1452 1452 1451 1449 1449 1448 1447 1446 1445 1444 1443 1441 1440 1439 1438 1438 1437 1436 1436 1435 1434 1434 1433 1432 1432 1430 1429 1428 1428 1427 1426 1426 1425 1425 1425 1426 1426